When you browse on this site, cookies collect data to enhance your experience and personalize the content and advertising you see.
Visit our Privacy Policy to learn more. By continuing to use the site, you agree to this use of cookies and data.
  • In Lithuania
  • List of Countries
  • For 7 days
  • Water Temperature
  • Weather Map
  • Weather Widgets
  • user-avatar
    Login

    Hourly Weather Valasske Mezirici

    Today, 16 September, Monday

    Time Temperature Precipitation Wind Pressure Humidity
    00:00 +13°C° 0 mm 1 mps 733 mmHg 79%
    01:00 +14°C° 0 mm 2 mps 733 mmHg 81%
    02:00 +13°C° 0 mm 1 mps 732 mmHg 83%
    03:00 +13°C° 0 mm 1 mps 732 mmHg 86%
    04:00 +13°C° 0 mm 1 mps 732 mmHg 88%
    05:00 +14°C° 0 mm 1 mps 732 mmHg 86%
    06:00 +14°C° 0 mm 1 mps 732 mmHg 85%
    07:00 +15°C° 0 mm 1 mps 732 mmHg 83%
    08:00 +18°C° 0 mm 1 mps 732 mmHg 77%
    09:00 +19°C° 0 mm 1 mps 732 mmHg 70%
    10:00 +21°C° 0 mm 1 mps 733 mmHg 64%
    11:00 +20°C° 0 mm 2 mps 732 mmHg 65%
    12:00 +20°C° 0 mm 2 mps 732 mmHg 66%
    13:00 +20°C° 0 mm 3 mps 732 mmHg 67%
    14:00 +20°C° 0 mm 3 mps 731 mmHg 68%
    15:00 +20°C° 0 mm 3 mps 731 mmHg 69%
    16:00 +20°C° 0 mm 3 mps 731 mmHg 70%
    17:00 +18°C° 0.1 mm 2 mps 731 mmHg 76%
    18:00 +17°C° 0.1 mm 2 mps 731 mmHg 81%
    19:00 +15°C° 0.1 mm 1 mps 731 mmHg 87%
    20:00 +15°C° 0.9 mm 1 mps 731 mmHg 90%
    21:00 +14°C° 0.9 mm 1 mps 730 mmHg 93%
    22:00 +14°C° 0.9 mm 1 mps 730 mmHg 96%
    23:00 +14°C° 0.6 mm 1 mps 730 mmHg 96%

    Tomorrow, 17 September, Tuesday

    Time Temperature Precipitation Wind Pressure Humidity
    00:00 +14°C° 0.6 mm 1 mps 730 mmHg 96%
    01:00 +14°C° 0.6 mm 1 mps 730 mmHg 96%
    02:00 +14°C° 0 mm 1 mps 730 mmHg 96%
    03:00 +14°C° 0 mm 1 mps 730 mmHg 96%
    04:00 +13°C° 0 mm 1 mps 729 mmHg 95%
    05:00 +13°C° 0 mm 1 mps 729 mmHg 94%
    06:00 +13°C° 0 mm 1 mps 730 mmHg 93%
    07:00 +13°C° 0 mm 1 mps 730 mmHg 92%
    08:00 +13°C° 0 mm 1 mps 730 mmHg 88%
    09:00 +14°C° 0 mm 1 mps 730 mmHg 83%
    10:00 +15°C° 0 mm 1 mps 730 mmHg 78%
    11:00 +16°C° 0 mm 3 mps 729 mmHg 72%
    12:00 +17°C° 0 mm 4 mps 729 mmHg 65%
    13:00 +17°C° 0 mm 5 mps 729 mmHg 58%
    14:00 +16°C° 0 mm 5 mps 728 mmHg 58%
    15:00 +16°C° 0 mm 5 mps 728 mmHg 58%
    16:00 +16°C° 0 mm 5 mps 728 mmHg 58%
    17:00 +14°C° 0 mm 5 mps 728 mmHg 64%
    18:00 +13°C° 0 mm 4 mps 728 mmHg 69%
    19:00 +11°C° 0 mm 3 mps 728 mmHg 75%
    20:00 +10°C° 0 mm 3 mps 728 mmHg 76%
    21:00 +10°C° 0 mm 4 mps 729 mmHg 77%
    22:00 +8°C° 0 mm 4 mps 729 mmHg 77%
    23:00 +7°C° 0 mm 4 mps 730 mmHg 77%

    Day after tomorrow, 18 September, Wednesday

    Time Temperature Precipitation Wind Pressure Humidity
    00:00 +7°C° 0 mm 4 mps 730 mmHg 76%
    01:00 +6°C° 0 mm 4 mps 731 mmHg 76%
    02:00 +5°C° 0 mm 3 mps 731 mmHg 79%
    03:00 +5°C° 0 mm 3 mps 731 mmHg 81%
    04:00 +4°C° 0 mm 3 mps 732 mmHg 84%
    05:00 +4°C° 0 mm 3 mps 732 mmHg 82%
    06:00 +5°C° 0 mm 3 mps 733 mmHg 80%
    07:00 +6°C° 0 mm 2 mps 733 mmHg 78%
    08:00 +8°C° 0 mm 2 mps 734 mmHg 71%
    09:00 +9°C° 0 mm 2 mps 734 mmHg 64%
    10:00 +12°C° 0 mm 2 mps 735 mmHg 57%
    11:00 +12°C° 0 mm 3 mps 735 mmHg 54%
    12:00 +13°C° 0 mm 3 mps 735 mmHg 50%
    13:00 +14°C° 0 mm 3 mps 734 mmHg 47%
    14:00 +14°C° 0 mm 4 mps 734 mmHg 48%
    15:00 +13°C° 0 mm 4 mps 734 mmHg 50%
    16:00 +13°C° 0 mm 5 mps 734 mmHg 51%
    17:00 +11°C° 0 mm 4 mps 734 mmHg 60%
    18:00 +9°C° 0 mm 3 mps 734 mmHg 68%
    19:00 +8°C° 0 mm 2 mps 734 mmHg 77%
    20:00 +8°C° 0 mm 1 mps 735 mmHg 79%
    21:00 +8°C° 0 mm 1 mps 735 mmHg 81%
    22:00 +6°C° 0 mm 0 mps 735 mmHg 82%
    23:00 +7°C° 0 mm 1 mps 735 mmHg 84%

    19 September, Thursday

    Time Temperature Precipitation Wind Pressure Humidity
    00:00 +7°C° 0 mm 1 mps 735 mmHg 85%
    01:00 +6°C° 0 mm 1 mps 735 mmHg 86%
    02:00 +6°C° 0 mm 1 mps 735 mmHg 87%
    03:00 +6°C° 0 mm 1 mps 735 mmHg 88%
    04:00 +6°C° 0 mm 1 mps 735 mmHg 88%
    05:00 +6°C° 0 mm 1 mps 735 mmHg 85%
    06:00 +7°C° 0 mm 1 mps 735 mmHg 82%
    07:00 +7°C° 0 mm 1 mps 736 mmHg 80%
    08:00 +9°C° 0 mm 1 mps 736 mmHg 72%
    09:00 +9°C° 0 mm 2 mps 737 mmHg 65%
    10:00 +10°C° 0 mm 2 mps 737 mmHg 58%
    11:00 +12°C° 0.1 mm 2 mps 737 mmHg 58%
    12:00 +13°C° 0.1 mm 2 mps 737 mmHg 57%
    13:00 +13°C° 0.1 mm 2 mps 737 mmHg 57%
    14:00 +13°C° 0.1 mm 2 mps 737 mmHg 58%
    15:00 +12°C° 0.1 mm 3 mps 737 mmHg 60%
    16:00 +12°C° 0.1 mm 3 mps 737 mmHg 61%
    17:00 +10°C° 0.1 mm 2 mps 737 mmHg 68%
    18:00 +9°C° 0.1 mm 2 mps 737 mmHg 74%
    19:00 +8°C° 0.1 mm 1 mps 738 mmHg 81%
    20:00 +8°C° 0 mm 1 mps 738 mmHg 82%
    21:00 +7°C° 0 mm 1 mps 738 mmHg 82%
    22:00 +7°C° 0 mm 1 mps 738 mmHg 83%
    23:00 +6°C° 0 mm 1 mps 739 mmHg 83%

    20 September, Friday

    Time Temperature Precipitation Wind Pressure Humidity
    00:00 +6°C° 0 mm 1 mps 739 mmHg 84%
    01:00 +6°C° 0 mm 1 mps 739 mmHg 84%
    02:00 +5°C° 0 mm 0 mps 739 mmHg 86%
    03:00 +4°C° 0 mm 0 mps 739 mmHg 87%
    04:00 +4°C° 0 mm 0 mps 739 mmHg 88%
    05:00 +5°C° 0 mm 0 mps 739 mmHg 85%
    06:00 +5°C° 0 mm 0 mps 739 mmHg 82%
    07:00 +6°C° 0 mm 0 mps 739 mmHg 80%
    08:00 +9°C° 0 mm 1 mps 739 mmHg 71%
    09:00 +10°C° 0 mm 1 mps 740 mmHg 62%
    10:00 +12°C° 0 mm 2 mps 740 mmHg 53%
    11:00 +13°C° 0 mm 2 mps 740 mmHg 50%
    12:00 +14°C° 0 mm 2 mps 739 mmHg 47%
    13:00 +14°C° 0 mm 2 mps 739 mmHg 44%
    14:00 +14°C° 0 mm 2 mps 739 mmHg 44%
    15:00 +14°C° 0 mm 2 mps 738 mmHg 45%
    16:00 +14°C° 0 mm 2 mps 738 mmHg 46%
    17:00 +12°C° 0 mm 1 mps 738 mmHg 52%
    18:00 +10°C° 0 mm 1 mps 738 mmHg 58%
    19:00 +8°C° 0 mm 1 mps 738 mmHg 64%
    20:00 +8°C° 0 mm 1 mps 738 mmHg 65%
    21:00 +7°C° 0 mm 1 mps 738 mmHg 66%
    22:00 +7°C° 0 mm 1 mps 739 mmHg 67%
    23:00 +7°C° 0 mm 1 mps 739 mmHg 68%

    21 September, Saturday

    Time Temperature Precipitation Wind Pressure Humidity
    00:00 +7°C° 0 mm 1 mps 738 mmHg 68%
    01:00 +6°C° 0 mm 1 mps 738 mmHg 69%
    02:00 +6°C° 0 mm 1 mps 738 mmHg 69%
    03:00 +6°C° 0 mm 1 mps 738 mmHg 70%
    04:00 +6°C° 0 mm 1 mps 738 mmHg 70%
    05:00 +7°C° 0 mm 1 mps 738 mmHg 68%
    06:00 +8°C° 0 mm 1 mps 738 mmHg 65%
    07:00 +9°C° 0 mm 1 mps 738 mmHg 63%
    08:00 +11°C° 0 mm 1 mps 738 mmHg 57%
    09:00 +13°C° 0 mm 0 mps 739 mmHg 51%
    10:00 +15°C° 0 mm 0 mps 739 mmHg 45%
    11:00 +18°C° 0 mm 1 mps 738 mmHg 44%
    12:00 +19°C° 0 mm 1 mps 738 mmHg 42%
    13:00 +19°C° 0 mm 1 mps 738 mmHg 41%
    14:00 +19°C° 0 mm 1 mps 738 mmHg 42%
    15:00 +19°C° 0 mm 1 mps 737 mmHg 44%
    16:00 +19°C° 0 mm 1 mps 737 mmHg 46%
    17:00 +15°C° 0 mm 1 mps 737 mmHg 53%
    18:00 +13°C° 0 mm 1 mps 737 mmHg 60%
    19:00 +11°C° 0 mm 1 mps 737 mmHg 67%
    20:00 +11°C° 0 mm 1 mps 737 mmHg 69%
    21:00 +10°C° 0 mm 1 mps 737 mmHg 71%
    22:00 +10°C° 0 mm 1 mps 737 mmHg 72%
    23:00 +10°C° 0 mm 1 mps 737 mmHg 73%
    Show more